Tracking 18945 objects as of 20-Jan-2018
HD Live streaming from Space Station
objects crossing your sky now

FENGYUN 1C DEB

Track FENGYUN 1C DEB now!
10-day predictions


NORAD ID: 31205
Int'l Code: 1999-025BKK
Perigee: 704.8 km
Apogee: 943.5 km
Inclination: 99.2 °
Period: 101.2 minutes
Semi major axis: 7195 km
RCS: 0.0159 m2 (small)
Launch date: May 10, 1999
Source: People's Republic of China (PRC)
Launch site: Taiyaun Space Center, China (TSC)

Note: This is SATELLITE DEBRIS
aabbcc
Your satellite tracking list
Your tracking list is empty




NASA's NSSDC Master Catalog

Two Line Element Set (TLE):
1 31205U 99025BKK 18018.55086869 +.00000026 +00000-0 +28986-4 0  9996
2 31205 099.2407 279.6227 0165897 128.7064 352.4955 14.22466681561806
Source of the keplerian elements: AFSPC